Date,TemperatureHighF,TemperatureAvgF,TemperatureLowF,DewpointHighF,DewpointAvgF,DewpointLowF,HumidityHigh,HumidityAvg,HumidityLow,PressureMaxIn,PressureMinIn,WindSpeedMaxMPH,WindSpeedAvgMPH,GustSpeedMaxMPH,PrecipitationSumIn
2013-1-1,56,44,37,37,31,24,93,63,34,30.29,30.22,3,1,7,0.00
2013-1-2,59,48,42,39,30,21,76,49,30,30.25,30.16,3,1,7,0.00
2013-1-3,58,47,40,39,32,23,73,56,43,30.29,30.17,3,1,5,0.00
2013-1-4,60,46,42,42,37,28,81,70,49,30.29,30.21,2,1,5,0.00
2013-1-5,48,45,41,44,38,28,98,81,48,30.28,30.09,4,2,7,0.45
2013-1-6,50,43,40,45,42,39,99,94,78,30.21,30.09,2,1,5,0.17
2013-1-7,60,46,39,51,43,38,98,91,68,30.27,30.19,3,1,5,0.00
2013-1-8,64,51,44,51,47,43,99,88,61,30.26,30.16,2,1,6,0.00
2013-1-9,47,44,35,46,42,34,98,96,89,30.19,30.01,2,1,6,0.03
2013-1-10,50,39,33,37,33,29,97,80,51,30.21,30.08,3,1,9,0.02
2013-1-11,52,39,33,37,33,29,91,78,54,30.25,30.13,3,1,7,0.00
2013-1-12,49,40,33,31,28,21,84,64,44,30.25,30.15,3,1,8,0.00
2013-1-13,52,40,31,34,23,9,76,51,24,30.26,30.19,8,2,22,0.00
2013-1-14,52,42,37,25,14,9,40,32,28,30.40,30.25,3,2,9,0.00
2013-1-15,55,46,39,35,32,26,77,59,42,30.49,30.42,3,1,6,0.00
2013-1-16,61,46,37,39,34,29,76,64,42,30.45,30.29,2,1,6,0.00
2013-1-17,65,51,41,43,36,25,75,58,36,30.29,30.20,2,1,5,0.00
2013-1-18,70,57,51,42,29,21,55,35,19,30.25,30.18,3,1,7,0.00
2013-1-19,68,57,51,31,24,18,36,28,20,30.28,30.20,3,1,7,0.00
2013-1-20,70,58,52,40,28,17,56,34,18,30.26,30.16,3,2,5,0.00
2013-1-21,67,58,51,42,31,20,51,37,23,30.21,30.13,3,1,7,0.00
2013-1-22,66,57,49,37,29,20,50,34,24,30.15,30.03,4,2,8,0.00
2013-1-23,58,52,47,50,40,26,99,68,30,30.13,29.99,3,2,6,0.50
2013-1-24,58,52,49,55,50,48,99,94,83,30.22,30.10,2,1,4,0.09
2013-1-25,60,54,49,55,51,48,98,91,77,30.23,30.09,2,1,5,0.00
2013-1-26,56,48,39,48,42,36,99,81,53,30.09,29.99,4,1,9,0.00
2013-1-27,55,43,35,37,35,31,91,73,44,30.20,30.07,3,1,7,0.00
2013-1-28,56,45,38,40,37,34,91,75,51,30.30,30.17,3,1,12,0.00
2013-1-29,61,49,40,43,39,35,85,70,47,30.38,30.30,3,1,7,0.00
2013-1-30,67,57,49,47,42,38,73,58,41,30.37,30.30,3,1,6,0.00
2013-1-31,67,57,47,48,44,39,81,64,41,30.33,30.23,3,1,7,0.00
2013-2-1,68,57,49,47,41,35,79,56,35,30.25,30.17,4,1,7,0.00
2013-2-2,54,49,45,47,42,38,95,80,54,30.30,30.25,2,0,4,0.00
2013-2-3,61,48,43,48,44,42,98,90,61,30.27,30.20,3,1,8,0.00
2013-2-4,60,51,42,49,45,41,98,81,64,30.18,30.09,2,1,5,0.00
2013-2-5,60,46,41,49,43,39,99,88,62,30.18,30.08,4,1,10,0.01
2013-2-6,59,46,37,43,39,36,96,80,46,30.22,30.13,3,1,8,0.01
2013-2-7,53,44,37,44,39,34,98,85,51,30.18,30.00,4,1,9,0.15
2013-2-8,58,43,34,39,35,28,98,75,38,30.03,29.96,3,1,8,0.01
2013-2-9,61,46,35,34,28,22,87,54,23,30.11,30.03,3,1,9,0.00
2013-2-10,64,52,43,42,32,25,69,47,31,30.13,30.05,4,1,8,0.00
2013-2-11,61,51,47,37,30,24,60,45,31,30.24,30.12,4,1,8,0.00
2013-2-12,61,51,42,43,39,34,79,65,48,30.39,30.25,3,1,8,0.00
2013-2-13,67,54,45,45,42,37,81,66,41,30.36,30.24,4,1,7,0.00
2013-2-14,72,60,54,48,41,34,64,48,34,30.28,30.21,3,1,8,0.00
2013-2-15,72,62,55,46,35,29,48,37,29,30.31,30.25,2,1,6,0.00
2013-2-16,71,61,50,46,41,35,65,49,32,30.24,30.08,2,1,6,0.00
2013-2-17,64,51,41,45,39,33,87,65,45,30.08,30.01,3,1,7,0.00
2013-2-18,51,43,38,42,38,35,95,83,65,30.04,29.93,3,1,8,0.00
2013-2-19,48,40,34,41,36,31,98,86,59,29.97,29.75,4,1,10,0.27
2013-2-20,58,44,33,37,34,30,91,71,38,30.07,29.85,3,2,9,0.02
2013-2-21,56,42,36,36,33,27,87,73,34,30.18,30.06,2,1,8,0.00
2013-2-25,67,55,43,41,33,22,77,47,21,30.28,30.19,3,1,9,0.00
2013-2-26,71,54,40,37,28,19,73,40,14,30.26,30.19,3,1,7,0.00
2013-2-27,69,55,45,45,34,23,77,46,28,30.40,30.24,2,1,10,0.00
2013-2-28,69,56,47,53,49,45,93,78,52,30.48,30.40,4,1,8,0.00
2013-3-1,72,59,47,54,48,44,98,71,36,30.47,30.30,3,1,6,0.00
2013-3-2,71,60,55,53,49,45,77,65,49,30.30,30.11,2,1,5,0.00
2013-3-3,65,53,45,49,46,43,97,80,53,30.12,30.05,3,1,8,0.00
2013-3-4,55,44,39,48,42,37,99,93,73,30.16,30.06,2,1,6,0.00
2013-3-5,51,43,38,44,40,37,98,91,76,30.08,29.80,9,2,27,0.58
2013-3-6,52,45,40,45,41,37,98,88,61,30.08,29.80,9,3,27,1.09
2013-3-7,52,45,39,40,38,35,95,77,54,30.02,29.90,3,1,7,0.01
2013-3-8,62,48,38,41,37,34,88,70,41,30.06,29.87,4,2,9,0.00
2013-3-9,70,52,38,44,38,33,91,62,28,30.36,30.05,3,1,8,0.00
2013-3-10,70,57,49,40,34,28,65,43,27,30.37,30.32,3,1,8,0.00
2013-3-11,71,64,55,46,42,36,71,45,30,30.29,30.15,3,1,7,0.00
2013-3-12,74,60,50,53,48,44,83,66,45,30.19,30.13,3,1,7,0.00
2013-3-13,79,64,56,55,50,46,76,62,32,30.19,30.13,3,1,6,0.00
2013-3-14,71,62,53,54,48,36,80,61,31,30.21,30.13,4,1,8,0.00
2013-3-15,75,58,48,51,45,40,76,62,37,30.17,30.08,3,1,9,0.00
2013-3-16,74,58,48,46,42,35,83,59,27,30.16,30.07,3,1,13,0.00
2013-3-17,70,54,43,44,40,34,87,63,29,30.18,30.08,3,1,8,0.00
2013-3-18,63,50,43,47,41,37,84,71,49,30.15,30.06,1,0,4,0.00
2013-3-19,59,51,43,48,40,34,96,67,44,30.16,30.09,2,1,4,0.10
2013-3-20,56,49,45,54,48,43,99,97,92,30.16,30.08,3,1,9,0.63
2013-3-21,65,49,38,46,41,37,99,77,46,30.16,30.05,3,1,9,0.01
2013-3-22,67,51,40,39,33,25,85,54,23,30.16,30.09,3,1,8,0.00
2013-3-23,68,54,42,40,34,24,68,48,26,30.17,30.09,3,1,7,0.00
2013-3-24,67,54,45,46,40,35,77,60,44,30.11,30.01,2,1,6,0.00
2013-3-25,58,49,43,47,42,39,93,78,61,30.04,29.96,4,1,9,0.00
2013-3-26,65,50,40,48,44,39,97,81,55,30.02,29.97,4,1,8,0.00
2013-3-27,57,50,44,51,47,42,96,89,76,30.04,29.97,3,1,7,0.00
2013-3-28,58,52,46,55,49,45,98,93,82,30.13,30.04,2,1,5,0.10
2013-3-29,75,60,50,56,51,48,97,72,43,30.13,30.08,3,2,9,0.01
2013-3-30,62,54,51,54,48,-100,97,84,74,30.11,30.05,3,1,6,0.15
2013-3-31,58,52,49,54,51,48,99,96,80,30.11,30.04,3,1,10,0.74
2013-4-1,61,53,48,54,51,47,99,93,79,30.19,30.09,3,1,8,0.08
2013-4-2,67,54,45,55,50,44,99,87,62,30.22,30.13,4,1,9,0.00
2013-4-3,72,57,45,58,51,44,99,82,58,30.17,30.03,3,1,9,0.00
2013-4-4,54,51,46,54,50,44,99,97,72,30.15,30.01,3,2,9,1.02
2013-4-5,59,53,49,54,51,48,100,94,78,30.22,30.15,3,1,8,0.09
2013-4-6,65,54,49,56,51,48,99,91,66,30.23,30.16,4,1,11,0.01
2013-4-7,60,52,49,55,50,48,100,95,76,30.21,30.02,3,1,9,0.08
2013-4-8,67,55,40,41,38,27,85,56,24,30.09,29.95,4,2,10,0.02
2013-4-9,76,58,43,45,36,21,85,52,14,30.18,30.09,5,1,14,0.00
2013-4-10,84,68,55,54,46,37,73,49,27,30.24,30.10,3,1,12,0.00
2013-4-11,73,59,46,49,46,42,88,64,37,30.11,29.89,2,1,9,0.00
2013-4-12,74,58,44,53,45,40,90,66,42,29.96,29.87,3,1,8,0.00
2013-4-13,67,53,48,46,40,37,79,64,42,29.93,29.85,3,1,10,0.00
2013-4-14,69,53,41,46,38,31,85,60,29,29.96,29.88,4,1,15,0.00
2013-4-15,59,48,39,42,36,32,91,66,39,29.98,29.88,4,2,15,0.00
2013-4-16,67,52,38,37,30,21,77,47,18,30.23,29.98,3,1,10,0.00
2013-4-17,69,57,48,37,27,19,56,34,16,30.32,30.22,4,2,16,0.00
2013-4-18,77,62,52,44,35,26,59,37,21,30.31,30.24,4,1,9,0.00
2013-4-19,78,63,51,54,47,42,79,57,34,30.27,30.13,3,1,10,0.00
2013-4-20,80,64,49,47,42,35,73,49,21,30.16,30.04,3,1,9,0.00
2013-4-21,83,68,51,52,44,38,75,46,24,30.09,30.00,3,1,10,0.00
2013-4-22,88,74,65,50,40,16,47,32,7,30.04,29.93,3,1,11,0.00
2013-4-23,82,68,54,47,30,15,56,27,11,30.00,29.91,4,2,22,0.00
2013-4-24,66,56,45,52,44,31,94,66,33,29.99,29.86,3,1,9,0.00
2013-4-25,64,51,45,51,46,43,96,85,61,30.15,29.98,3,1,9,0.00
2013-4-26,73,54,45,55,48,44,98,83,52,30.26,30.15,3,1,7,0.00
2013-4-27,79,59,41,57,49,40,99,74,40,30.26,30.11,3,1,6,0.00
2013-4-28,83,68,54,57,50,42,71,53,38,30.11,29.96,3,1,7,0.00
2013-4-29,80,65,58,51,48,44,65,53,37,29.97,29.84,2,1,11,0.00
2013-4-30,85,67,51,47,34,9,79,40,6,29.95,29.85,5,1,11,0.00
2013-5-1,84,73,61,29,18,10,22,13,8,30.15,29.91,6,2,22,0.00
2013-5-2,88,76,66,45,27,11,27,17,11,30.22,30.15,3,1,10,0.00
2013-5-3,88,73,62,47,35,24,33,25,20,30.15,29.87,3,1,7,0.00
2013-5-4,88,72,50,49,36,12,93,34,6,29.87,29.63,4,2,11,0.00
2013-5-5,62,54,50,50,48,47,93,81,64,29.87,29.67,3,1,7,0.00
2013-5-6,65,56,48,54,49,46,96,79,54,30.02,29.86,3,1,7,0.01
2013-5-7,69,59,51,54,51,47,95,76,50,30.08,30.01,3,1,11,0.01
2013-5-8,65,53,48,54,50,46,99,90,68,30.16,30.07,3,1,6,0.00
2013-5-10,78,67,58,59,54,-100,84,66,50,30.22,30.14,3,1,8,0.01
2013-5-11,85,67,54,59,54,-100,90,66,41,30.19,30.11,3,1,7,0.01
2013-5-12,83,67,55,61,54,48,88,64,45,30.19,30.08,3,1,8,0.00
2013-5-13,84,67,53,60,50,44,77,57,39,30.13,29.99,4,1,9,0.00
2013-5-14,84,64,54,54,46,40,79,56,25,30.02,29.95,2,1,7,0.00
2013-5-15,78,60,47,46,44,41,80,58,30,30.07,30.00,3,1,9,0.00
2013-5-16,72,56,50,52,34,-100,84,68,42,30.05,29.97,4,2,13,0.00
2013-5-17,70,56,44,47,40,-100,94,67,39,30.10,29.99,4,1,11,0.00
2013-5-18,80,61,45,51,46,42,92,62,29,30.17,30.09,3,1,10,0.00
2013-5-19,84,66,49,49,42,27,78,48,14,30.18,30.05,4,1,10,0.00
2013-5-20,86,74,61,49,40,34,55,30,18,30.08,29.96,4,1,10,0.00
2013-5-21,72,60,48,46,41,35,64,50,35,30.03,29.94,4,2,11,0.00
2013-5-22,69,53,42,39,34,29,72,50,25,30.05,29.93,4,2,13,0.00
2013-5-23,71,55,41,43,39,37,86,59,32,30.04,29.93,4,1,11,0.00
2013-5-24,73,57,42,45,41,38,88,59,31,30.03,29.96,4,1,8,0.00
2013-5-25,72,58,44,47,43,39,87,61,35,30.06,29.97,3,1,7,0.00
2013-5-26,75,60,49,51,47,41,94,66,31,30.14,30.06,4,2,12,0.00
2013-5-27,60,54,48,55,50,43,98,86,75,30.14,30.03,3,1,8,0.24
2013-5-28,72,60,53,57,54,51,99,83,55,30.04,29.96,3,1,9,0.24
2013-5-29,77,62,53,53,49,46,88,66,35,30.00,29.94,3,1,9,0.00
2013-5-30,82,62,46,47,44,33,90,57,18,30.03,29.96,3,1,11,0.00
2013-5-31,88,68,51,52,46,43,80,51,23,30.07,29.99,3,1,9,0.00
2013-6-1,92,73,57,52,47,43,65,42,23,30.00,29.85,2,1,7,0.00
2013-6-2,86,70,55,52,48,43,70,48,27,29.85,29.71,3,1,7,0.00
2013-6-3,67,59,50,54,51,48,94,76,58,29.92,29.75,4,2,11,0.00
2013-6-4,65,55,50,53,50,48,96,85,64,30.00,29.90,4,2,10,0.00
2013-6-5,73,57,49,56,51,48,99,83,53,30.03,29.96,3,2,8,0.01
2013-6-6,81,60,47,58,52,46,99,79,45,29.99,29.89,3,1,8,0.01
2013-6-7,96,73,51,61,54,48,95,59,24,29.92,29.81,3,1,7,0.00
2013-6-8,98,78,53,63,57,50,94,52,29,29.88,29.78,4,1,7,0.00
2013-6-9,63,56,52,55,52,50,97,89,74,29.94,29.88,3,2,11,0.00
2013-6-10,56,54,52,55,54,51,99,98,93,30.01,29.90,2,1,6,0.22
2013-6-11,76,61,50,60,54,44,99,79,53,30.03,29.94,3,1,9,0.01
2013-6-12,82,62,48,47,44,41,86,57,24,30.02,29.93,3,1,8,0.00
2013-6-13,83,64,47,47,43,38,77,50,20,30.14,30.02,3,2,10,0.00
2013-6-14,65,60,56,46,41,36,67,50,39,30.06,30.00,2,1,6,0.00
2013-6-15,81,73,60,52,49,43,58,44,35,30.02,29.94,4,1,8,0.00
2013-6-16,88,69,53,51,46,41,73,47,21,30.11,30.02,3,1,11,0.00
2013-6-17,82,66,52,54,49,45,79,57,35,30.12,30.04,3,2,11,0.00
2013-6-18,74,60,49,51,46,41,91,63,31,30.05,29.98,3,2,11,0.00
2013-6-19,76,61,47,47,45,43,88,59,31,30.09,30.03,3,2,11,0.00
2013-6-20,81,59,49,48,45,37,82,63,21,30.05,29.98,3,1,12,0.00
2013-6-21,84,82,79,47,43,41,32,25,22,30.01,29.96,4,3,10,0.00
2013-6-22,88,78,58,51,46,41,64,35,21,29.99,29.89,3,2,10,0.00
2013-6-23,67,61,56,60,55,51,96,81,67,29.91,29.85,3,2,9,0.00
2013-6-24,58,55,53,57,54,52,99,97,93,29.95,29.83,3,1,7,0.25
2013-6-25,62,59,56,62,59,56,100,99,99,30.03,29.92,4,1,10,1.11
2013-6-26,77,66,59,66,62,58,100,89,63,30.12,30.02,3,1,7,0.17
2013-6-27,89,71,58,64,60,57,99,75,39,30.16,30.09,3,1,9,0.01
2013-6-28,100,80,64,68,60,49,85,55,19,30.11,29.98,3,1,9,0.00
2013-6-29,100,84,69,61,56,52,63,40,25,30.00,29.88,3,1,8,0.00
2013-6-30,97,82,68,62,57,51,63,44,29,29.91,29.83,3,1,7,0.00
2013-7-1,97,80,65,66,58,54,74,50,27,29.92,29.85,3,1,8,0.00
2013-7-2,94,79,63,64,60,55,77,54,36,29.97,29.88,3,1,8,0.00
2013-7-3,90,74,61,65,59,55,86,63,41,29.96,29.84,4,1,11,0.00
2013-7-4,99,86,69,64,56,42,70,38,22,29.88,29.75,3,2,9,0.00
2013-7-5,84,69,57,57,52,43,80,55,36,29.80,29.74,3,1,7,0.00
2013-7-6,79,62,53,59,54,51,94,78,48,29.84,29.78,3,1,7,0.00
2013-7-7,81,63,50,59,53,48,97,74,46,29.90,29.83,3,1,7,0.00
2013-7-8,83,61,49,59,53,48,98,77,41,30.02,29.90,3,1,9,0.00
2013-7-9,90,73,53,60,53,46,96,55,22,30.08,30.01,3,1,11,0.00
2013-7-10,85,67,53,56,48,-100,87,55,31,30.03,29.95,3,1,7,0.00
2013-7-11,66,53,48,53,50,47,98,90,62,29.99,29.91,2,1,4,0.01
2013-7-12,79,61,49,57,52,48,98,78,44,29.98,29.91,3,1,9,0.01
2013-7-13,85,68,53,58,53,45,95,62,34,30.01,29.93,4,1,8,0.00
2013-7-14,82,65,48,57,52,45,93,66,37,30.03,29.95,3,1,7,0.00
2013-7-15,69,55,47,55,50,46,98,85,58,29.96,29.88,4,1,10,0.00
2013-7-16,66,55,50,56,52,49,99,90,68,30.06,29.90,3,1,10,0.02
2013-7-17,79,62,51,59,54,50,98,78,48,30.14,30.06,3,1,8,0.01
2013-7-18,86,68,52,59,54,49,96,64,33,30.10,29.99,3,1,7,0.00
2013-7-19,90,77,61,59,55,50,76,48,33,29.98,29.88,3,2,8,0.00
2013-7-20,90,70,54,60,54,-100,93,63,36,29.89,29.80,3,1,8,0.00
2013-7-21,84,68,55,58,53,49,85,63,38,29.88,29.80,3,1,7,0.00
2013-7-24,88,78,69,57,54,51,60,44,30,30.01,29.97,4,1,9,0.00
2013-7-25,84,68,56,58,54,50,81,62,40,30.06,29.97,3,1,9,0.00
2013-7-26,82,61,50,59,52,48,97,76,44,30.13,30.05,3,1,9,0.00
2013-7-27,79,62,50,58,53,49,98,77,46,30.07,29.91,3,1,8,0.00
2013-7-28,76,63,50,58,53,48,98,73,50,29.92,29.85,3,2,8,0.00
2013-7-29,71,55,50,56,51,49,99,90,59,30.06,29.88,3,1,9,0.01
2013-7-30,75,59,50,59,53,48,99,81,55,30.15,30.05,3,1,7,0.01
2013-7-31,78,60,49,57,52,48,99,78,47,30.12,30.03,3,1,8,0.01
2013-8-1,79,65,50,53,50,47,92,62,36,30.09,30.01,3,1,8,0.00
2013-8-2,84,67,53,54,50,45,82,57,32,30.01,29.94,4,1,9,0.00
2013-8-3,80,62,51,57,53,49,96,74,44,30.00,29.95,3,1,8,0.00
2013-8-4,75,58,49,57,51,47,98,81,51,30.04,29.99,3,1,8,0.00
2013-8-5,77,58,48,57,51,47,99,82,47,30.06,29.98,3,1,7,0.00
2013-8-6,72,55,49,55,51,48,99,88,55,30.09,30.01,4,1,11,0.01
2013-8-7,67,57,51,56,53,50,98,87,68,30.14,30.08,3,1,10,0.01
2013-8-8,73,58,52,58,54,50,98,86,59,30.08,29.98,3,1,9,0.02
2013-8-9,73,57,49,57,52,48,99,85,56,30.03,29.95,4,2,9,0.01
2013-8-10,75,60,52,58,54,51,99,83,52,30.09,30.02,4,1,9,0.00
2013-8-11,81,64,50,59,54,49,99,75,42,30.06,29.98,3,1,9,0.00
2013-8-12,83,64,50,57,52,49,96,70,36,30.04,29.97,3,1,8,0.00
2013-8-13,89,71,56,57,50,-100,83,53,25,30.04,29.96,3,1,10,0.00
2013-8-14,90,71,58,58,48,-100,71,47,26,30.02,29.94,4,1,9,0.00
2013-8-15,87,65,59,64,47,-100,93,69,39,30.01,29.96,5,1,12,0.00
2013-8-16,88,71,61,64,56,-100,95,66,32,30.04,29.98,4,1,10,0.00
2013-8-17,88,73,61,58,53,-100,73,53,35,30.03,29.91,3,1,8,0.00
2013-8-18,94,78,59,62,57,55,87,53,32,29.94,29.85,3,1,11,0.00
2013-8-19,85,73,57,61,48,-100,91,52,38,29.97,29.87,3,1,7,0.00
2013-8-20,81,63,55,61,55,-100,98,82,46,29.95,29.89,5,1,9,0.00
2013-8-21,78,60,53,57,54,50,98,83,44,30.00,29.92,3,1,9,0.00
2013-8-22,74,59,52,57,53,50,99,83,53,30.02,29.94,4,2,8,0.00
2013-8-23,82,64,53,58,54,49,97,73,41,29.96,29.85,3,1,8,0.00
2013-8-24,81,66,56,58,52,-100,86,63,42,29.93,29.86,4,2,10,0.00
2013-8-25,76,65,58,61,58,55,97,80,56,29.99,29.92,4,1,11,0.00
2013-8-26,82,66,57,60,56,49,98,74,42,30.06,29.95,4,1,11,0.02
2013-8-27,82,63,56,55,51,48,80,66,38,29.96,29.92,3,1,7,0.01
2013-8-28,84,73,60,62,60,57,93,65,45,29.99,29.93,4,2,10,0.00
2013-8-29,84,67,57,63,60,56,99,80,46,30.11,29.99,3,1,10,0.01
2013-8-30,91,73,60,61,58,52,92,64,28,30.09,29.98,3,1,9,0.01
2013-8-31,85,69,59,57,52,-100,81,58,33,30.02,29.94,3,1,10,0.00
2013-9-1,81,66,56,59,55,51,88,69,40,29.99,29.93,4,1,9,0.00
2013-9-2,81,67,57,61,58,54,94,75,47,30.00,29.94,4,1,12,0.00
2013-9-3,82,66,54,57,54,50,93,69,34,30.04,29.96,4,1,10,0.00
2013-9-4,83,66,54,57,54,52,96,69,35,30.08,29.98,4,1,12,0.00
2013-9-5,84,67,54,55,51,44,94,63,25,30.05,29.98,3,1,10,0.00
2013-9-6,92,73,57,54,49,44,80,48,20,30.03,29.92,4,1,9,0.00
2013-9-7,94,82,71,49,43,-100,44,28,16,29.95,29.88,4,2,9,0.00
2013-9-8,93,78,64,54,48,43,56,36,20,29.93,29.84,3,1,7,0.00
2013-9-9,96,81,71,52,48,44,45,33,20,29.87,29.77,4,1,9,0.00
2013-9-10,72,61,53,60,55,49,98,82,47,29.96,29.78,3,1,10,0.00
2013-9-11,65,60,57,59,58,56,99,93,80,30.06,29.95,3,1,8,0.02
2013-9-12,81,64,57,63,58,55,99,84,52,30.03,29.92,3,1,10,0.01
2013-9-13,84,66,54,59,55,52,97,72,37,29.95,29.80,4,1,9,0.01
2013-9-14,83,65,51,58,53,-100,94,70,41,29.86,29.77,3,1,10,0.00
2013-9-15,80,63,50,57,54,49,98,75,44,29.90,29.80,4,1,11,0.00
2013-9-16,84,67,55,58,55,51,98,70,36,29.94,29.82,4,1,10,0.01
2013-9-17,79,64,52,53,51,47,92,65,36,29.94,29.84,4,1,10,0.01
2013-9-18,68,59,53,48,46,44,79,65,42,29.94,29.89,1,1,4,0.00
2013-9-19,88,71,58,47,40,29,60,36,15,29.92,29.82,4,1,10,0.00
2013-9-20,76,62,53,60,51,41,98,70,50,29.88,29.80,6,2,12,0.05
2013-9-21,68,58,51,61,54,-100,100,90,59,29.93,29.83,3,2,10,0.58
2013-9-22,75,59,49,53,49,44,98,74,33,30.05,29.93,4,1,9,0.01
2013-9-23,83,65,53,59,53,49,90,68,33,30.07,29.98,4,1,9,0.00
2013-9-24,77,63,54,52,49,46,86,63,35,30.03,29.93,4,2,10,0.00
2013-9-25,71,58,48,48,44,39,91,63,31,29.97,29.86,4,2,10,0.00
2013-9-26,75,59,47,42,37,28,74,48,23,30.05,29.90,3,1,7,0.00
2013-9-27,79,66,55,38,34,30,47,33,17,30.14,30.05,4,2,11,0.00
2013-9-28,80,66,55,53,39,-100,89,43,19,30.14,30.05,4,1,10,0.00
2013-9-29,67,59,54,62,57,51,99,93,81,30.14,30.09,3,1,8,0.10
2013-9-30,68,61,58,65,60,57,100,98,84,30.10,30.03,3,1,9,0.14
2013-10-1,73,61,55,50,48,47,76,63,41,30.00,29.96,2,1,5,0.01
2013-10-2,77,60,50,49,45,39,86,61,26,30.05,29.98,3,1,10,0.01
2013-10-3,72,60,47,40,33,23,71,42,16,30.13,30.04,5,2,14,0.00
2013-10-4,79,67,57,29,25,20,31,21,12,30.15,30.06,6,2,16,0.00
2013-10-5,85,72,63,31,25,20,26,18,10,30.25,30.15,4,2,11,0.00
2013-10-6,83,73,63,38,31,25,28,21,12,30.19,30.07,3,2,9,0.00
2013-10-7,82,71,59,41,32,22,51,25,11,30.06,29.93,3,1,8,0.00
2013-10-8,76,61,52,46,42,39,73,52,26,29.96,29.74,3,1,8,0.00
2013-10-9,73,59,48,43,39,34,80,53,25,29.81,29.65,4,1,16,0.00
2013-10-10,73,61,52,47,41,34,73,49,35,30.03,29.80,3,1,10,0.00
2013-10-11,70,56,46,49,44,40,89,68,41,30.11,30.02,3,1,8,0.00
2013-10-12,71,58,51,48,43,-100,78,62,39,30.03,29.92,3,1,8,0.00
2013-10-13,75,60,49,44,41,32,79,54,21,30.11,29.96,4,1,10,0.00
2013-10-14,79,66,57,38,36,32,47,34,18,30.16,30.06,3,1,7,0.00
2013-10-15,84,68,57,34,28,20,42,25,10,30.09,30.02,3,1,7,0.00
2013-10-16,81,70,61,35,30,27,31,23,17,30.14,30.05,3,1,8,0.00
2013-10-17,81,70,61,35,32,29,33,25,17,30.14,30.03,3,1,9,0.00
2013-10-18,80,68,59,42,36,31,39,32,22,30.09,30.03,3,1,7,0.00
2013-10-19,83,71,62,43,36,-100,40,30,19,30.12,30.06,3,1,7,0.00
2013-10-20,81,69,60,44,39,36,56,35,23,30.08,29.97,3,1,7,0.00
2013-10-21,76,64,54,49,45,40,65,52,37,30.03,29.97,2,1,6,0.00
2013-10-22,81,67,56,50,46,42,68,49,29,30.06,29.98,2,1,7,0.00
2013-10-23,79,64,52,50,45,40,74,53,29,30.00,29.95,2,1,6,0.00
2013-10-24,66,51,44,49,45,42,98,84,53,30.11,29.99,2,1,6,0.00
2013-10-25,72,60,46,50,48,45,97,67,44,30.21,30.14,3,1,7,0.01
2013-10-26,81,66,55,48,42,-100,69,45,24,30.19,30.07,3,1,8,0.01
2013-10-27,62,53,45,49,43,37,89,69,43,30.07,29.66,4,1,10,0.00
2013-10-28,64,51,43,45,40,-100,91,70,40,29.85,29.68,3,1,8,0.00
2013-10-29,63,51,43,47,45,42,96,79,55,30.08,29.85,3,1,8,0.00
2013-10-30,66,54,47,47,44,40,87,69,45,30.19,30.08,3,1,7,0.00
2013-10-31,73,61,50,46,44,40,75,55,35,30.21,30.12,2,1,6,0.00
2013-11-1,77,67,56,48,44,41,61,44,33,30.18,30.07,4,1,6,0.00
2013-11-2,73,61,52,49,41,-100,66,51,29,30.07,29.94,3,1,11,0.00
2013-11-3,62,50,43,39,34,29,71,54,29,30.09,29.96,4,1,9,0.00
2013-11-4,69,54,41,36,31,21,73,46,16,30.14,29.95,5,2,12,0.00
2013-11-5,74,61,49,36,34,30,50,37,24,30.26,30.13,3,1,7,0.00
2013-11-6,75,64,57,42,38,34,47,38,30,30.30,30.22,2,1,8,0.00
2013-11-7,74,62,52,48,39,33,82,44,27,30.22,30.12,3,1,8,0.00
2013-11-8,73,58,50,50,44,30,88,62,31,30.12,30.00,3,1,9,0.00
2013-11-9,74,62,52,46,41,-100,64,48,34,30.08,30.01,3,1,7,0.00
2013-11-10,67,54,45,50,46,41,97,77,53,30.15,30.05,3,1,6,0.00
2013-11-11,69,55,44,50,46,41,98,73,44,30.24,30.09,3,1,5,0.00
2013-11-12,73,60,54,48,45,40,73,58,33,30.33,30.20,2,1,6,0.00
2013-11-13,78,63,53,52,48,43,74,59,34,30.30,30.14,3,1,9,0.00
2013-11-14,66,57,51,50,45,32,85,65,46,30.15,29.91,3,1,8,0.00
2013-11-15,67,53,42,39,37,32,82,57,29,29.92,29.76,3,1,9,0.00
2013-11-16,67,51,42,46,40,-100,91,69,43,29.95,29.79,3,1,9,0.00
2013-11-17,62,51,43,48,45,42,96,83,60,30.11,29.95,2,1,6,0.00
2013-11-18,55,49,44,47,45,42,95,86,69,30.18,30.10,3,1,8,0.04
2013-11-19,53,51,47,53,50,46,99,98,95,30.13,29.96,3,1,7,0.72
2013-11-20,55,53,50,55,53,50,100,99,99,29.96,29.88,2,1,6,0.62
2013-11-21,61,52,43,50,31,13,100,54,20,30.03,29.92,7,2,22,0.02
2013-11-22,69,60,50,17,11,5,24,15,9,30.06,29.95,7,4,22,0.01
2013-11-23,70,58,49,31,18,-100,41,23,10,30.13,29.98,5,2,17,0.00
2013-11-24,65,54,47,43,35,23,75,51,30,30.28,30.12,2,1,6,0.00
2013-11-25,64,55,48,43,41,38,73,60,41,30.35,30.27,3,1,8,0.00
2013-11-26,67,55,48,44,38,33,73,55,30,30.30,30.07,2,1,5,0.00
2013-11-27,64,57,51,41,38,33,56,49,41,30.08,29.88,4,2,8,0.00
2013-11-28,71,60,54,42,40,36,59,48,34,30.11,29.91,3,1,7,0.00
2013-11-29,69,59,53,44,41,36,62,52,38,30.25,30.11,2,1,6,0.00
2013-11-30,70,59,53,45,41,-100,65,54,39,30.31,30.23,2,1,7,0.00
2013-12-1,71,59,51,47,44,41,78,57,39,30.37,30.27,2,1,8,0.00
2013-12-2,63,54,47,50,47,44,94,79,55,30.27,29.97,3,1,8,0.00
2013-12-3,55,47,39,51,33,19,95,61,35,29.99,29.86,3,1,10,0.00
2013-12-4,52,42,34,26,20,9,61,43,30,30.09,29.96,3,1,8,0.00
2013-12-5,48,40,34,29,19,10,72,45,26,30.15,30.08,3,1,6,0.00
2013-12-6,45,38,31,41,31,22,97,77,41,30.17,29.92,3,1,7,0.48
2013-12-7,45,36,31,39,28,-100,96,77,44,30.26,29.92,4,1,10,0.42
2013-12-8,46,36,31,27,20,8,83,53,31,30.31,30.23,2,1,5,0.00
2013-12-9,51,44,37,27,22,16,60,43,24,30.42,30.36,3,1,6,0.00
2013-12-10,55,45,37,29,24,15,58,43,32,30.41,30.22,3,1,6,0.00
2013-12-11,60,50,41,35,30,25,57,47,35,30.25,30.21,2,1,7,0.00
2013-12-12,60,52,44,35,30,21,60,44,32,30.28,30.20,2,1,5,0.00
2013-12-13,64,51,41,37,33,29,65,52,29,30.35,30.24,3,1,5,0.00
2013-12-14,67,54,48,40,35,-100,67,51,29,30.42,30.33,2,1,5,0.00
2013-12-15,66,57,48,40,36,29,66,47,35,30.40,30.27,3,1,5,0.00
2013-12-16,70,60,51,41,35,29,54,40,27,30.28,30.17,3,1,7,0.00
2013-12-17,71,61,54,40,36,30,50,41,28,30.20,30.07,2,1,4,0.00
2013-12-18,61,54,47,44,37,31,76,54,39,30.07,29.75,3,1,11,0.00
2013-12-19,59,50,40,38,25,9,79,44,20,29.96,29.74,7,3,21,0.00
2013-12-20,65,52,41,37,20,5,61,30,12,30.03,29.93,5,1,13,0.00
2013-12-21,66,53,45,47,42,-100,90,69,46,30.12,29.99,3,1,9,0.00
2013-12-22,71,59,51,45,40,33,65,49,36,30.32,30.11,2,1,5,0.00
2013-12-23,69,57,51,44,40,37,63,54,38,30.42,30.32,3,1,6,0.00
2013-12-24,72,60,51,46,42,38,68,53,36,30.37,30.25,3,1,6,0.00
2013-12-25,71,58,49,43,36,29,67,46,25,30.32,30.25,2,1,6,0.00
2013-12-26,74,66,57,38,31,26,40,28,17,30.28,30.21,2,1,5,0.00
2013-12-27,64,57,49,38,31,26,46,38,29,30.25,30.15,2,1,4,0.00
2013-12-28,73,59,46,30,22,-100,49,27,14,30.16,30.08,4,1,10,0.00
2013-12-29,68,59,53,30,20,7,35,23,13,30.22,30.11,3,1,9,0.00
2013-12-30,65,57,50,35,31,19,50,38,25,30.27,30.20,3,1,5,0.00
2013-12-31,63,55,48,37,32,26,51,43,35,30.30,30.20,3,1,5,0.00
2014-1-1,68,58,49,35,30,23,50,35,22,30.22,30.16,3,1,5,0.00
2014-1-2,69,59,52,39,35,31,48,41,33,30.21,30.09,2,1,4,0.00